Portada
METAR-TAF:

METAR-TAF

Aeroports :

Paris, Tennessee, Estats Units d'Amèrica

latitud: 36-20-18N, longitud: 088-22-58W, altitud: 177 m

Observació

L'informe es va fer fa 37 minuts, a les 06:00 UTC
Vent calma
Temperatura 21°C
Humitat 100%
Pressió 1024 hPa
Visibilitat: 12.9 km
Cel clar

METAR: KPHT 200600Z AUTO 00000KT 8SM CLR 21/21 A3025 RMK A01

Hora: 01:37 (06:37 UTC)


TAF: manca

Observacions i pronòstics meteorològics de més de 4000 aeroports (METAR i TAF).

Les estacions disponibles són els punts grocs i vermells al mapa.

Posi el ratolí al punt desitjat per veure el nom de l'estació.

Feu clic per veure les observacions i els pronòstics meteorològics.

Per canviar el mapa: feu clic els botons verds amb una creu de color negre per apropar; al botó verd amb un guió per allunyar la imatge; o en les fletxes verdes per a mapes adjacents.


METAR-TAF: